Noatak, AK

10:17 AM AKST on December 05, 2016 (GMT -0900)
Noatak

Weather History for PAWN - October, 2012

Change the Weather History Date:

Wednesday, October 24, 2012

  Actual Average Record
Temperature  
Mean Temperature 18 °F -  
Max Temperature 23 °F 21 °F 42 °F (2002)
Min Temperature 12 °F 10 °F -14 °F (1996)
Degree Days  
Heating Degree Days 48    
Moisture  
Dew Point 14 °F    
Average Humidity 88    
Maximum Humidity 93    
Minimum Humidity 79    
Precipitation  
Precipitation 0.00 in - - ()
Sea Level Pressure  
Sea Level Pressure 30.75 in    
Wind  
Wind Speed 3 mph (North)    
Max Wind Speed 6 mph    
Max Gust Speed -    
Visibility 10 miles    
Events      
Averages and records for this station are not official NWS values.
T = Trace of Precipitation, MM = Missing Value Source: NWS Daily Summary

Daily Weather History Graph

Daily Weather History Graph

Search for Another Location

Airport or City:

Trip Planner

Search our weather history database for the weather conditions in past years. The results will help you decide how hot, cold, wet, or windy it might be!

Date:

Astronomy

Oct. 24, 2012 Rise Set
Actual Time 10:30 AM AKDT 6:39 PM AKDT
Civil Twilight 9:31 AM AKDT 7:39 PM AKDT
Nautical Twilight 8:26 AM AKDT 8:43 PM AKDT
Astronomical Twilight 7:23 AM AKDT 9:46 PM AKDT
Moon 5:46 PM AKDT (10/24) 3:36 AM AKDT (10/24)
Length of Visible Light 10h 08m
Length of Day
8h 09m
Waxing Gibbous, 77% of the Moon is Illuminated
Oct 24
Waxing Gibbous
Oct 29
Full
Nov 6
Last Quarter
Nov 13
New
Nov 20
First Quarter

Hourly Weather History & Observations

Time (AKDT) Temp. Windchill Dew Point Humidity Pressure Visibility Wind Dir Wind Speed Gust Speed Precip Events Conditions
12:16 AM 17.6 °F 9.3 °F 15.8 °F 93% 30.74 in 10.0 mi NNW 5.8 mph - N/A   Clear
12:36 AM 17.6 °F 9.3 °F 14.0 °F 86% 30.75 in 10.0 mi North 5.8 mph - N/A   Clear
12:56 AM 17.6 °F 9.3 °F 14.0 °F 86% 30.75 in 10.0 mi North 5.8 mph - N/A   Clear
1:16 AM 17.6 °F 10.7 °F 15.8 °F 93% 30.75 in 10.0 mi North 4.6 mph - N/A   Clear
1:36 AM 17.6 °F 9.3 °F 15.8 °F 93% 30.75 in 10.0 mi NNE 5.8 mph - N/A   Clear
1:56 AM 17.6 °F 9.3 °F 15.8 °F 93% 30.76 in 10.0 mi North 5.8 mph - N/A   Clear
2:16 AM 17.6 °F 12.3 °F 14.0 °F 86% 30.76 in 10.0 mi North 3.5 mph - N/A   Clear
2:36 AM 15.8 °F 8.6 °F 12.2 °F 86% 30.76 in 10.0 mi NNW 4.6 mph - N/A   Clear
3:16 AM 19.4 °F 14.3 °F 15.8 °F 86% 30.76 in 10.0 mi NNE 3.5 mph - N/A   Clear
3:36 AM 19.4 °F 14.3 °F 15.8 °F 86% 30.76 in 10.0 mi NNE 3.5 mph - N/A   Clear
3:56 AM 15.8 °F - 12.2 °F 86% 30.77 in 10.0 mi Calm Calm - N/A   Clear
4:16 AM 15.8 °F 8.6 °F 12.2 °F 86% 30.76 in 10.0 mi NNE 4.6 mph - N/A   Clear
4:36 AM 17.6 °F 12.3 °F 15.8 °F 93% 30.76 in 10.0 mi NE 3.5 mph - N/A   Clear
4:56 AM 17.6 °F - 14.0 °F 86% 30.76 in 10.0 mi Calm Calm - N/A   Clear
5:16 AM 17.6 °F 9.3 °F 12.2 °F 79% 30.75 in 10.0 mi East 5.8 mph - N/A   Clear
5:36 AM 15.8 °F 8.6 °F 12.2 °F 86% 30.75 in 10.0 mi NE 4.6 mph - N/A   Clear
5:56 AM 15.8 °F 10.2 °F 10.4 °F 79% 30.75 in 10.0 mi NNE 3.5 mph - N/A   Clear
6:16 AM 15.8 °F - 12.2 °F 86% 30.75 in 10.0 mi Calm Calm - N/A   Clear
6:36 AM 14.0 °F - 10.4 °F 86% 30.76 in 10.0 mi Calm Calm - N/A   Clear
6:56 AM 14.0 °F 8.2 °F 12.2 °F 93% 30.76 in 10.0 mi NNE 3.5 mph - N/A   Clear
7:16 AM 14.0 °F - 10.4 °F 86% 30.76 in 10.0 mi Calm Calm - N/A   Clear
7:36 AM 12.2 °F - 8.6 °F 85% 30.77 in 10.0 mi Calm Calm - N/A   Clear
7:56 AM 12.2 °F 6.1 °F 10.4 °F 92% 30.77 in 10.0 mi North 3.5 mph - N/A   Clear
8:16 AM 12.2 °F - 10.4 °F 92% 30.76 in 8.0 mi Calm Calm - N/A   Clear
8:36 AM 12.2 °F 6.1 °F 10.4 °F 92% 30.75 in 10.0 mi NE 3.5 mph - N/A   Clear
8:56 AM 12.2 °F 6.1 °F 10.4 °F 92% 30.76 in 10.0 mi NNE 3.5 mph - N/A   Clear
9:16 AM 12.2 °F 6.1 °F 10.4 °F 92% 30.76 in 8.0 mi NNE 3.5 mph - N/A   Clear
9:36 AM 12.2 °F - 10.4 °F 92% 30.76 in 10.0 mi Calm Calm - N/A   Clear
9:56 AM 12.2 °F - 8.6 °F 85% 30.76 in 10.0 mi Calm Calm - N/A   Clear
10:16 AM 12.2 °F 6.1 °F 8.6 °F 85% 30.76 in 10.0 mi North 3.5 mph - N/A   Clear
10:36 AM 14.0 °F 6.5 °F 10.4 °F 86% 30.76 in 10.0 mi North 4.6 mph - N/A   Clear
10:56 AM 14.0 °F - 10.4 °F 86% 30.76 in 10.0 mi Calm Calm - N/A   Clear
11:16 AM 15.8 °F - 12.2 °F 86% 30.77 in 10.0 mi Calm Calm - N/A   Clear
11:36 AM 15.8 °F - 12.2 °F 86% 30.77 in 10.0 mi Calm Calm - N/A   Clear
11:56 AM 15.8 °F - 12.2 °F 86% 30.78 in 10.0 mi Calm Calm - N/A   Clear
12:16 PM 15.8 °F 10.2 °F 12.2 °F 86% 30.78 in 10.0 mi North 3.5 mph - N/A   Clear
12:36 PM 17.6 °F - 14.0 °F 86% 30.77 in 10.0 mi Calm Calm - N/A   Clear
12:56 PM 17.6 °F - 14.0 °F 86% 30.77 in 10.0 mi Calm Calm - N/A   Clear
1:16 PM 17.6 °F - 14.0 °F 86% 30.78 in 10.0 mi Calm Calm - N/A   Clear
1:36 PM 17.6 °F - 14.0 °F 86% 30.77 in 10.0 mi Calm Calm - N/A   Clear
1:56 PM 19.4 °F - 15.8 °F 86% 30.77 in 10.0 mi Calm Calm - N/A   Clear
2:16 PM 19.4 °F - 15.8 °F 86% 30.76 in 10.0 mi Calm Calm - N/A   Clear
2:36 PM 19.4 °F - 15.8 °F 86% 30.75 in 10.0 mi Calm Calm - N/A   Clear
2:56 PM 19.4 °F 14.3 °F 17.6 °F 93% 30.75 in 10.0 mi NNW 3.5 mph - N/A   Clear
3:16 PM 19.4 °F 11.5 °F 17.6 °F 93% 30.76 in 10.0 mi NNW 5.8 mph - N/A   Clear
3:36 PM 21.2 °F - 17.6 °F 86% 30.75 in 10.0 mi Calm Calm - N/A   Clear
3:56 PM 21.2 °F 14.9 °F 17.6 °F 86% 30.75 in 10.0 mi North 4.6 mph - N/A   Clear
4:16 PM 21.2 °F 16.4 °F 19.4 °F 93% 30.75 in 10.0 mi North 3.5 mph - N/A   Clear
4:36 PM 21.2 °F 16.4 °F 17.6 °F 86% 30.73 in 10.0 mi North 3.5 mph - N/A   Clear
4:56 PM 21.2 °F - 19.4 °F 93% 30.73 in 10.0 mi Calm Calm - N/A   Clear
5:16 PM 23.0 °F 18.4 °F 19.4 °F 86% 30.74 in 10.0 mi NNW 3.5 mph - N/A   Clear
5:36 PM 21.2 °F 14.9 °F 19.4 °F 93% 30.74 in 10.0 mi North 4.6 mph - N/A   Clear
5:56 PM 21.2 °F 13.6 °F 19.4 °F 93% 30.73 in 10.0 mi North 5.8 mph - N/A   Clear
6:16 PM 21.2 °F 13.6 °F 19.4 °F 93% 30.74 in 10.0 mi North 5.8 mph - N/A   Clear
6:36 PM 21.2 °F 14.9 °F 17.6 °F 86% 30.73 in 10.0 mi NNE 4.6 mph - N/A   Clear
6:56 PM 21.2 °F - 17.6 °F 86% 30.72 in 10.0 mi Calm Calm - N/A   Clear
7:16 PM 21.2 °F 16.4 °F 19.4 °F 93% 30.72 in 10.0 mi North 3.5 mph - N/A   Clear
7:36 PM 21.2 °F - 19.4 °F 93% 30.71 in 10.0 mi Calm Calm - N/A   Clear
7:56 PM 21.2 °F 16.4 °F 19.4 °F 93% 30.71 in 10.0 mi North 3.5 mph - N/A   Clear
10:56 PM 21.2 °F - 17.6 °F 86% 30.69 in 10.0 mi Calm Calm - N/A   Clear
11:16 PM 21.2 °F 16.4 °F 17.6 °F 86% 30.69 in 10.0 mi NNE 3.5 mph - N/A   Clear
11:36 PM 21.2 °F 16.4 °F 17.6 °F 86% 30.69 in 10.0 mi North 3.5 mph - N/A   Clear
11:56 PM 21.2 °F 16.4 °F 17.6 °F 86% 30.68 in 10.0 mi NNE 3.5 mph - N/A   Clear